TimeCDT,TemperatureF,Dew PointF,Humidity,Sea Level PressureIn,VisibilityMPH,Wind Direction,Wind SpeedMPH,Gust SpeedMPH,PrecipitationIn,Events,Conditions,WindDirDegrees,DateUTC
12:15 AM,90.7,55.4,30,29.79,10.0,South,16.1,-,N/A,,Clear,170,2013-06-26 05:15:00
12:35 AM,90.0,55.6,31,29.80,10.0,South,12.7,-,N/A,,Clear,170,2013-06-26 05:35:00
12:55 AM,89.1,55.8,32,29.80,10.0,South,12.7,-,N/A,,Clear,170,2013-06-26 05:55:00
1:15 AM,88.2,55.9,33,29.80,10.0,South,11.5,-,N/A,,Clear,170,2013-06-26 06:15:00
1:35 AM,87.6,56.3,34,29.80,10.0,South,11.5,-,N/A,,Clear,180,2013-06-26 06:35:00
1:55 AM,87.1,56.8,36,29.80,10.0,South,11.5,-,N/A,,Clear,180,2013-06-26 06:55:00
2:15 AM,86.5,57.2,37,29.80,10.0,South,13.8,-,N/A,,Clear,180,2013-06-26 07:15:00
2:35 AM,86.2,57.2,37,29.79,10.0,South,12.7,-,N/A,,Clear,190,2013-06-26 07:35:00
2:55 AM,85.8,57.6,38,29.79,10.0,South,13.8,-,N/A,,Clear,190,2013-06-26 07:55:00
3:15 AM,85.3,58.3,40,29.79,10.0,South,11.5,-,N/A,,Clear,190,2013-06-26 08:15:00
3:35 AM,85.1,59.0,41,29.79,10.0,South,10.4,-,N/A,,Clear,190,2013-06-26 08:35:00
3:55 AM,84.7,59.7,43,-9999,10.0,SSW,9.2,-,N/A,,Clear,200,2013-06-26 08:55:00
4:15 AM,84.7,60.3,43,29.80,10.0,SSW,8.1,-,N/A,,Clear,200,2013-06-26 09:15:00
4:35 AM,84.2,60.8,45,29.81,10.0,South,6.9,-,N/A,,Clear,180,2013-06-26 09:35:00
4:55 AM,81.7,60.8,49,29.81,10.0,South,8.1,-,N/A,,Clear,170,2013-06-26 09:55:00
5:15 AM,80.8,60.8,50,29.82,10.0,SSE,8.1,-,N/A,,Clear,160,2013-06-26 10:15:00
5:35 AM,80.6,60.8,51,29.82,10.0,South,6.9,-,N/A,,Clear,170,2013-06-26 10:35:00
5:55 AM,79.9,60.8,52,29.83,10.0,SSE,6.9,-,N/A,,Clear,160,2013-06-26 10:55:00
6:15 AM,79.9,61.2,53,29.83,10.0,South,9.2,-,N/A,,Clear,170,2013-06-26 11:15:00
6:35 AM,80.6,61.7,52,29.84,10.0,South,10.4,-,N/A,,Clear,170,2013-06-26 11:35:00
6:55 AM,81.0,61.7,52,29.84,10.0,South,10.4,-,N/A,,Clear,190,2013-06-26 11:55:00
7:15 AM,82.0,61.7,50,29.84,10.0,South,12.7,-,N/A,,Clear,190,2013-06-26 12:15:00
7:35 AM,82.9,61.7,49,29.84,10.0,South,13.8,-,N/A,,Clear,190,2013-06-26 12:35:00
7:55 AM,84.0,61.7,47,29.86,10.0,SSE,11.5,-,N/A,,Clear,150,2013-06-26 12:55:00
8:15 AM,84.9,61.9,46,29.86,10.0,South,13.8,-,N/A,,Clear,180,2013-06-26 13:15:00
8:35 AM,85.8,62.2,45,29.87,10.0,South,13.8,-,N/A,,Clear,180,2013-06-26 13:35:00
8:55 AM,86.7,62.6,44,29.87,10.0,South,15.0,-,N/A,,Clear,190,2013-06-26 13:55:00
9:15 AM,88.0,62.6,43,29.88,10.0,SSW,16.1,-,N/A,,Clear,200,2013-06-26 14:15:00
9:55 AM,-9999,-9999,N/A,29.88,-9999.0,North,-9999.0,-,N/A,,Unknown,0,2013-06-26 14:55:00
10:15 AM,91.8,62.2,37,29.88,10.0,SSW,17.3,24.2,N/A,,Clear,210,2013-06-26 15:15:00
10:35 AM,93.0,61.9,35,29.88,10.0,SSW,18.4,23.0,N/A,,Clear,210,2013-06-26 15:35:00
10:55 AM,93.4,62.2,35,29.88,10.0,SSW,16.1,-,N/A,,Clear,200,2013-06-26 15:55:00
11:15 AM,94.1,62.4,35,29.88,10.0,South,15.0,-,N/A,,Clear,190,2013-06-26 16:15:00
11:35 AM,94.8,62.8,34,29.88,10.0,SSW,15.0,-,N/A,,Clear,200,2013-06-26 16:35:00
11:55 AM,95.7,63.1,34,29.88,10.0,South,11.5,-,N/A,,Clear,170,2013-06-26 16:55:00
12:15 PM,96.6,63.3,33,29.88,10.0,SSW,15.0,19.6,N/A,,Clear,200,2013-06-26 17:15:00
12:35 PM,97.5,63.3,32,29.88,10.0,SSE,13.8,19.6,N/A,,Clear,160,2013-06-26 17:35:00
12:55 PM,97.9,63.3,32,29.88,10.0,SSE,13.8,18.4,N/A,,Clear,160,2013-06-26 17:55:00
1:15 PM,99.0,63.5,31,29.87,10.0,South,15.0,21.9,N/A,,Clear,180,2013-06-26 18:15:00
1:35 PM,99.9,63.3,30,29.87,10.0,South,17.3,21.9,N/A,,Clear,170,2013-06-26 18:35:00
1:55 PM,100.4,63.3,30,29.86,10.0,South,11.5,21.9,N/A,,Clear,180,2013-06-26 18:55:00
2:15 PM,101.1,63.3,29,29.86,10.0,South,15.0,28.8,N/A,,Clear,180,2013-06-26 19:15:00
2:35 PM,102.0,63.1,28,29.85,10.0,South,12.7,16.1,N/A,,Clear,190,2013-06-26 19:35:00
2:55 PM,102.9,62.6,27,29.85,10.0,South,16.1,23.0,N/A,,Clear,190,2013-06-26 19:55:00
3:15 PM,103.3,62.6,26,29.84,10.0,South,15.0,19.6,N/A,,Clear,180,2013-06-26 20:15:00
3:35 PM,103.8,63.0,26,29.84,10.0,South,15.0,23.0,N/A,,Clear,190,2013-06-26 20:35:00
3:55 PM,104.5,62.6,25,29.83,10.0,South,15.0,23.0,N/A,,Clear,170,2013-06-26 20:55:00
4:15 PM,105.1,63.0,25,29.83,10.0,SSE,16.1,23.0,N/A,,Clear,160,2013-06-26 21:15:00
4:35 PM,105.1,62.6,25,29.82,10.0,SSE,17.3,26.5,N/A,,Clear,160,2013-06-26 21:35:00
4:55 PM,105.1,62.1,25,29.83,10.0,SSE,16.1,25.3,N/A,,Clear,160,2013-06-26 21:55:00
5:15 PM,105.3,61.0,23,29.82,10.0,South,17.3,21.9,N/A,,Clear,180,2013-06-26 22:15:00
5:35 PM,105.3,60.8,23,29.82,10.0,SSE,16.1,21.9,N/A,,Clear,160,2013-06-26 22:35:00
5:55 PM,105.1,59.9,23,29.81,10.0,SSE,19.6,23.0,N/A,,Clear,150,2013-06-26 22:55:00
6:15 PM,105.1,59.2,22,29.81,10.0,SSE,17.3,24.2,N/A,,Clear,160,2013-06-26 23:15:00
6:35 PM,105.1,59.5,22,29.81,10.0,South,16.1,23.0,N/A,,Clear,180,2013-06-26 23:35:00
6:55 PM,104.4,59.5,23,29.81,10.0,SE,18.4,23.0,N/A,,Clear,140,2013-06-26 23:55:00
7:15 PM,103.8,60.4,24,29.81,10.0,South,15.0,-,N/A,,Clear,170,2013-06-27 00:15:00
7:35 PM,103.3,60.1,24,29.81,10.0,South,16.1,20.7,N/A,,Clear,170,2013-06-27 00:35:00
7:55 PM,102.4,59.9,25,29.82,10.0,SSE,19.6,-,N/A,,Clear,160,2013-06-27 00:55:00
8:15 PM,101.5,59.5,25,29.82,10.0,SSE,13.8,-,N/A,,Clear,160,2013-06-27 01:15:00
8:35 PM,100.2,61.0,27,29.83,10.0,SSE,11.5,17.3,N/A,,Clear,150,2013-06-27 01:35:00
8:55 PM,-9999,-9999,N/A,29.83,-9999.0,SSE,13.8,-,N/A,,Unknown,150,2013-06-27 01:55:00
9:15 PM,97.0,62.6,32,29.84,10.0,SSE,11.5,-,N/A,,Clear,150,2013-06-27 02:15:00
9:35 PM,96.1,62.6,33,29.84,10.0,SSE,12.7,-,N/A,,Clear,150,2013-06-27 02:35:00
9:55 PM,95.4,62.2,33,29.85,10.0,SE,10.4,-,N/A,,Clear,140,2013-06-27 02:55:00
10:15 PM,94.3,61.9,34,29.86,10.0,SE,12.7,-,N/A,,Clear,140,2013-06-27 03:15:00
10:35 PM,93.9,61.7,34,29.87,10.0,SE,11.5,-,N/A,,Clear,140,2013-06-27 03:35:00
10:55 PM,92.8,61.9,36,29.88,10.0,SE,8.1,-,N/A,,Clear,130,2013-06-27 03:55:00
11:15 PM,91.4,62.1,37,29.89,10.0,ESE,8.1,-,N/A,,Clear,120,2013-06-27 04:15:00
11:35 PM,90.3,62.1,39,29.90,10.0,ESE,6.9,-,N/A,,Clear,120,2013-06-27 04:35:00
11:55 PM,89.1,62.6,41,29.90,10.0,SE,6.9,-,N/A,,Clear,130,2013-06-27 04:55:00